When you browse on this site, cookies collect data to enhance your experience and personalize the content and advertising you see.
Visit our Privacy Policy to learn more. By continuing to use the site, you agree to this use of cookies and data.
  • In Belgien
  • Länderverzeichnis
  • Für 7 Tage
  • Wassertemperatur
  • Satellitenkarten
  • Wetterkarte
  • Widgets
  • user-avatar
    Anmelden

    Stündliche Wetter Jechegnadsor

    Heute, 22 Januar, Dienstag

    Zeit Temperatur Niederschläge Wind Luftdruck Luftfeuchtigkeit
    00:00 -7°C° 0 mm 2 m/S 651 mmHg 54%
    01:00 -7°C° 0 mm 2 m/S 651 mmHg 55%
    02:00 -7°C° 0 mm 2 m/S 650 mmHg 55%
    03:00 -7°C° 0 mm 2 m/S 650 mmHg 58%
    04:00 -7°C° 0 mm 2 m/S 650 mmHg 58%
    05:00 -7°C° 0 mm 2 m/S 650 mmHg 58%
    06:00 -7°C° 0 mm 2 m/S 650 mmHg 58%
    07:00 -6°C° 0 mm 2 m/S 650 mmHg 58%
    08:00 -3°C° 0 mm 1 m/S 650 mmHg 58%
    09:00 -1°C° 0 mm 1 m/S 651 mmHg 58%
    10:00 0°C° 0 mm 1 m/S 651 mmHg 57%
    11:00 +1°C° 0 mm 1 m/S 651 mmHg 55%
    12:00 +2°C° 0 mm 1 m/S 650 mmHg 54%
    13:00 +2°C° 0 mm 1 m/S 650 mmHg 56%
    14:00 +2°C° 0 mm 1 m/S 650 mmHg 57%
    15:00 +2°C° 0 mm 1 m/S 649 mmHg 62%
    16:00 0°C° 0 mm 1 m/S 649 mmHg 62%
    17:00 -1°C° 0 mm 1 m/S 649 mmHg 62%
    18:00 -3°C° 0 mm 1 m/S 649 mmHg 61%
    19:00 -3°C° 0 mm 1 m/S 649 mmHg 61%
    20:00 -4°C° 0 mm 1 m/S 649 mmHg 61%
    21:00 -6°C° 0 mm 2 m/S 650 mmHg 60%
    22:00 -6°C° 0 mm 2 m/S 650 mmHg 61%
    23:00 -6°C° 0 mm 2 m/S 650 mmHg 62%

    Morgen, 23 Januar, Mittwoch

    Zeit Temperatur Niederschläge Wind Luftdruck Luftfeuchtigkeit
    00:00 -6°C° 0 mm 2 m/S 650 mmHg 62%
    01:00 -6°C° 0 mm 2 m/S 650 mmHg 63%
    02:00 -6°C° 0 mm 2 m/S 650 mmHg 63%
    03:00 -6°C° 0 mm 2 m/S 650 mmHg 64%
    04:00 -7°C° 0 mm 2 m/S 650 mmHg 64%
    05:00 -7°C° 0 mm 2 m/S 650 mmHg 65%
    06:00 -7°C° 0 mm 2 m/S 651 mmHg 65%
    07:00 -5°C° 0 mm 2 m/S 651 mmHg 65%
    08:00 -4°C° 0 mm 2 m/S 652 mmHg 64%
    09:00 -3°C° 0 mm 2 m/S 652 mmHg 64%
    10:00 -2°C° 0 mm 2 m/S 652 mmHg 64%
    11:00 -1°C° 0 mm 2 m/S 652 mmHg 63%
    12:00 +1°C° 0 mm 2 m/S 652 mmHg 62%
    13:00 +2°C° 0 mm 2 m/S 652 mmHg 63%
    14:00 +2°C° 0 mm 2 m/S 652 mmHg 64%
    15:00 +3°C° 0 mm 1 m/S 652 mmHg 65%
    16:00 -1°C° 0 mm 2 m/S 652 mmHg 65%
    17:00 -3°C° 0 mm 2 m/S 652 mmHg 65%
    18:00 -4°C° 0 mm 2 m/S 651 mmHg 65%
    19:00 -4°C° 0 mm 2 m/S 652 mmHg 64%
    20:00 -5°C° 0 mm 2 m/S 652 mmHg 62%
    21:00 -5°C° 0 mm 2 m/S 652 mmHg 60%
    22:00 -5°C° 0 mm 2 m/S 652 mmHg 62%
    23:00 -5°C° 0 mm 2 m/S 652 mmHg 64%

    übermorgen, 24 Januar, Donnerstag

    Zeit Temperatur Niederschläge Wind Luftdruck Luftfeuchtigkeit
    00:00 -5°C° 0 mm 2 m/S 652 mmHg 67%
    01:00 -5°C° 0 mm 2 m/S 652 mmHg 69%
    02:00 -5°C° 0 mm 2 m/S 652 mmHg 71%
    03:00 -5°C° 0 mm 2 m/S 652 mmHg 74%
    04:00 -6°C° 0 mm 2 m/S 652 mmHg 75%
    05:00 -6°C° 0 mm 2 m/S 652 mmHg 75%
    06:00 -6°C° 0 mm 2 m/S 652 mmHg 76%
    07:00 -5°C° 0 mm 2 m/S 652 mmHg 75%
    08:00 -4°C° 0 mm 2 m/S 653 mmHg 74%
    09:00 -3°C° 0 mm 2 m/S 653 mmHg 73%
    10:00 -1°C° 0 mm 2 m/S 653 mmHg 72%
    11:00 +1°C° 0 mm 2 m/S 653 mmHg 70%
    12:00 +2°C° 0 mm 2 m/S 653 mmHg 69%
    13:00 +2°C° 0 mm 2 m/S 653 mmHg 69%
    14:00 +2°C° 0 mm 2 m/S 652 mmHg 70%
    15:00 +2°C° 0 mm 2 m/S 652 mmHg 70%
    16:00 +1°C° 0 mm 2 m/S 652 mmHg 70%
    17:00 -1°C° 0 mm 2 m/S 652 mmHg 71%
    18:00 -3°C° 0 mm 2 m/S 652 mmHg 72%
    19:00 -3°C° 0 mm 2 m/S 652 mmHg 70%
    20:00 -3°C° 0 mm 2 m/S 651 mmHg 68%
    21:00 -3°C° 0 mm 2 m/S 651 mmHg 67%
    22:00 -3°C° 0 mm 2 m/S 651 mmHg 66%
    23:00 -3°C° 0 mm 2 m/S 651 mmHg 65%

    25 Januar, Freitag

    Zeit Temperatur Niederschläge Wind Luftdruck Luftfeuchtigkeit
    00:00 -4°C° 0 mm 2 m/S 651 mmHg 64%
    01:00 -3°C° 0 mm 2 m/S 651 mmHg 65%
    02:00 -3°C° 0 mm 2 m/S 651 mmHg 66%
    03:00 -4°C° 0 mm 3 m/S 651 mmHg 67%
    04:00 -3°C° 0 mm 2 m/S 650 mmHg 66%
    05:00 -2°C° 0 mm 2 m/S 650 mmHg 66%
    06:00 -2°C° 0 mm 2 m/S 650 mmHg 66%
    07:00 -2°C° 0 mm 2 m/S 650 mmHg 66%
    08:00 -1°C° 0 mm 2 m/S 650 mmHg 67%
    09:00 +1°C° 0 mm 2 m/S 651 mmHg 68%
    10:00 +2°C° 0.1 mm 2 m/S 650 mmHg 69%
    11:00 +2°C° 0.1 mm 2 m/S 650 mmHg 70%
    12:00 +3°C° 0.1 mm 2 m/S 650 mmHg 71%
    13:00 +3°C° 0.1 mm 2 m/S 650 mmHg 72%
    14:00 +3°C° 0.1 mm 2 m/S 650 mmHg 74%
    15:00 +3°C° 0.1 mm 2 m/S 649 mmHg 76%
    16:00 +2°C° 0.1 mm 2 m/S 649 mmHg 78%
    17:00 +1°C° 0.1 mm 2 m/S 649 mmHg 80%
    18:00 -1°C° 0.1 mm 2 m/S 650 mmHg 83%
    19:00 -2°C° 0 mm 2 m/S 650 mmHg 82%
    20:00 -2°C° 0 mm 2 m/S 650 mmHg 82%
    21:00 -2°C° 0 mm 2 m/S 650 mmHg 82%
    22:00 -2°C° 0 mm 2 m/S 650 mmHg 82%
    23:00 -3°C° 0 mm 2 m/S 650 mmHg 82%

    26 Januar, Samstag

    Zeit Temperatur Niederschläge Wind Luftdruck Luftfeuchtigkeit
    00:00 -3°C° 0 mm 2 m/S 650 mmHg 82%
    01:00 -3°C° 0 mm 2 m/S 650 mmHg 82%
    02:00 -3°C° 0 mm 2 m/S 650 mmHg 82%
    03:00 -3°C° 0 mm 2 m/S 649 mmHg 82%
    04:00 -3°C° 0 mm 2 m/S 649 mmHg 80%
    05:00 -3°C° 0 mm 2 m/S 649 mmHg 79%
    06:00 -3°C° 0 mm 2 m/S 649 mmHg 78%
    07:00 -2°C° 0 mm 2 m/S 650 mmHg 76%
    08:00 -1°C° 0 mm 2 m/S 650 mmHg 73%
    09:00 +1°C° 0 mm 2 m/S 650 mmHg 71%
    10:00 +1°C° 0 mm 3 m/S 650 mmHg 71%
    11:00 +2°C° 0 mm 3 m/S 650 mmHg 70%
    12:00 +3°C° 0 mm 3 m/S 650 mmHg 69%
    13:00 +3°C° 0 mm 3 m/S 649 mmHg 68%
    14:00 +4°C° 0 mm 3 m/S 649 mmHg 67%
    15:00 +4°C° 0 mm 3 m/S 649 mmHg 66%
    16:00 +2°C° 0 mm 3 m/S 648 mmHg 66%
    17:00 +1°C° 0 mm 3 m/S 648 mmHg 65%
    18:00 0°C° 0 mm 3 m/S 648 mmHg 65%
    19:00 0°C° 0 mm 3 m/S 648 mmHg 68%
    20:00 0°C° 0 mm 3 m/S 648 mmHg 70%
    21:00 +1°C° 0 mm 3 m/S 648 mmHg 72%
    22:00 +1°C° 0.2 mm 3 m/S 648 mmHg 75%
    23:00 +1°C° 0.2 mm 3 m/S 647 mmHg 78%

    27 Januar, Sonntag

    Zeit Temperatur Niederschläge Wind Luftdruck Luftfeuchtigkeit
    00:00 +1°C° 0.2 mm 3 m/S 647 mmHg 82%
    01:00 +1°C° 0.2 mm 3 m/S 647 mmHg 85%
    02:00 +1°C° 0.2 mm 3 m/S 647 mmHg 88%
    03:00 +1°C° 0.2 mm 3 m/S 647 mmHg 91%
    04:00 +1°C° 0.1 mm 3 m/S 647 mmHg 92%
    05:00 +1°C° 0.1 mm 3 m/S 647 mmHg 92%
    06:00 +1°C° 0.1 mm 3 m/S 647 mmHg 93%
    07:00 +2°C° 0.1 mm 3 m/S 647 mmHg 92%
    08:00 +2°C° 0.1 mm 3 m/S 647 mmHg 91%
    09:00 +3°C° 0.1 mm 3 m/S 648 mmHg 89%
    10:00 +3°C° 0 mm 3 m/S 647 mmHg 88%
    11:00 +4°C° 0 mm 3 m/S 647 mmHg 86%
    12:00 +5°C° 0 mm 3 m/S 647 mmHg 84%
    13:00 +5°C° 0 mm 3 m/S 647 mmHg 83%
    14:00 +5°C° 0 mm 3 m/S 647 mmHg 82%
    15:00 +5°C° 0 mm 3 m/S 646 mmHg 81%
    16:00 +4°C° 0 mm 3 m/S 647 mmHg 83%
    17:00 +3°C° 0 mm 3 m/S 647 mmHg 84%
    18:00 +2°C° 0 mm 3 m/S 647 mmHg 86%
    19:00 +2°C° 0 mm 3 m/S 647 mmHg 87%
    20:00 +2°C° 0 mm 3 m/S 647 mmHg 88%
    21:00 +2°C° 0 mm 3 m/S 648 mmHg 89%
    22:00 +2°C° 0 mm 3 m/S 648 mmHg 90%
    23:00 +2°C° 0 mm 3 m/S 648 mmHg 91%
    Mehr zeigen